Regional Weather Roundup
Issued by NWS

Home | Current Version | Previous Version | Graphics & Text | Print | Product List | Glossary On
Versions: 1 2 3 4 5 6 7 8 9 10 11 12 13 14 15 16 17 18 19 20 21 22 23 24 25 26 27 28 29 30 31 32 33 34 35 36 37 38 39 40 41 42 43 44 45 46 47 48 49 50
000
ASUS43 KBIS 221310
RWRND

NORTH DAKOTA REGIONAL WEATHER ROUNDUP
NATIONAL WEATHER SERVICE BISMARCK ND
800 AM CDT TUE MAY 22 2018

NOTE: "FAIR" INDICATES FEW OR NO CLOUDS BELOW 12,000 FEET WITH NO
SIGNIFICANT WEATHER AND/OR OBSTRUCTIONS TO VISIBILITY.


NDZ001>003-009>011-017-221400-
NORTHWEST NORTH DAKOTA

CITY           SKY/WX    TMP DP  RH WIND       PRES   REMARKS
WILLISTON      MOSUNNY   62  50  64 S6        29.90S
MINOT          MOSUNNY   61  49  64 SE8       29.91R
MINOT AFB      MOSUNNY   61  48  63 S7        29.89R
$$

NDZ018>021-031>035-040>046-221400-
SOUTHWEST NORTH DAKOTA

CITY           SKY/WX    TMP DP  RH WIND       PRES   REMARKS
BISMARCK       MOSUNNY   53  51  93 NE6       29.95S
DICKINSON      PTSUNNY   57  32  38 SW6       29.93R
GARRISON         N/A     55  49  80 SE3       29.93R
HETTINGER ARPT MOSUNNY   57  46  66 E3        29.96R
$$

NDZ004>008-012>016-024-026-027-054-221400-
NORTHEAST NORTH DAKOTA

CITY           SKY/WX    TMP DP  RH WIND       PRES   REMARKS
GRAND FORKS    FAIR      58  57  97 S9        29.97R
GRND FRKS AFB  FAIR      59  59 100 S8        29.96S
DEVILS LAKE    FAIR      59  56  89 S3        29.96R
$$

NDZ022-023-025-028>030-036>039-047>053-221400-
SOUTHEAST NORTH DAKOTA

CITY           SKY/WX    TMP DP  RH WIND       PRES   REMARKS
FARGO          FOG       55  55 100 S12       30.00R VSB 1/4
JAMESTOWN      SUNNY     57  55  93 S8        29.96R FOG
$$





USA.gov is the U.S. government's official web portal to all federal, state and local government web resources and services.